Location: Newark
(44.5208°N, 2.4294°E)
Time: 15:42:43
(UTC+00:00)

Envisat - Pass Details

Date: 28 September 2019
Orbit: 764 x 766 km, 98.1° (Epoch: 21 October)

Event Time Altitude Azimuth Distance (km) Brightness Sun altitude
Rises 19:26:30 0° 217° (SW) 3,221 6.5 -20.1°
Reaches altitude 10° 19:30:07 10° 244° (WSW) 2,302 6.1 -20.7°
Maximum altitude 19:32:28 13° 272° (W) 2,092 6.2 -21.1°
Drops below altitude 10° 19:34:49 10° 300° (WNW) 2,309 6.6 -21.5°
Sets 19:38:29 0° 327° (NNW) 3,242 7.1 -22.1°
